Weather reports worldwide

Advertisment
Lulea/Kallax, Sweden (2186): temperature & dewpoint: 11.08.2017 09:00:00 - 17.08.2017 09:00:00 (CEST)Lulea/Kallax, Sweden (2186): wind speed & gusts: 11.08.2017 09:00:00 - 17.08.2017 09:00:00 (CEST)Lulea/Kallax, Sweden (2186): wind direction: 11.08.2017 09:00:00 - 17.08.2017 09:00:00 (CEST)Lulea/Kallax, Sweden (2186): reduced air pressure: 11.08.2017 09:00:00 - 17.08.2017 09:00:00 (CEST)Lulea/Kallax, Sweden (2186): visibility: 11.08.2017 09:00:00 - 17.08.2017 09:00:00 (CEST)Lulea/Kallax, Sweden (2186): precipitation: 11.08.2017 09:00:00 - 17.08.2017 09:00:00 (CEST)
Date & Time tt [°C] td [°C] ff [km/h] ff [kn] fx [km/h] fx [kn] dd ppp [hPa] vv [km] rr [mm]
17.08.2017 09:00:00 14,3 8,9 15 8 25 14 W 1017,4 10 0,0
17.08.2017 08:00:00 12,9 9,2 13 7 25 14 W 1017,1 10 0,0
17.08.2017 07:00:00 11,5 8,5 15 8 25 14 W 1016,3 10 0,0
17.08.2017 06:00:00 10,4 8,3 15 8 22 12 WSW 1015,5 10 0,0
17.08.2017 05:00:00 10,2 8,5 15 8 22 12 WSW 1014,7 10 0,0
17.08.2017 04:00:00 10,4 8,7 16 9 25 14 WSW 1013,8 10 0,0
17.08.2017 03:00:00 11,0 9,3 15 8 25 14 W 1012,8 10 0,0
17.08.2017 02:00:00 12,6 11,3 16 9 22 12 W 1012,3 10 0,0
17.08.2017 01:00:00 13,0 12,4 13 7 22 12 SSW 1011,4 10 0,0
17.08.2017 00:00:00 13,3 12,7 11 6 25 14 SSW 1011,1 10 0,0
16.08.2017 23:00:00 13,8 13,0 22 12 40 21 S 1011,3 10 0,0
16.08.2017 22:00:00 13,6 13,0 26 14 36 19 SSE 1011,6 6 3,0
16.08.2017 21:00:00 13,4 12,5 22 12 32 18 S 1012,4 8 3,0
16.08.2017 20:00:00 13,9 12,1 21 11 32 18 S 1013,2 10 0,2
16.08.2017 19:00:00 14,1 12,7 18 10 36 19 S 1014,0 10 0,5
16.08.2017 18:00:00 14,3 12,7 22 12 36 19 S 1014,6 10 0,6
16.08.2017 17:00:00 14,1 12,7 28 15 47 25 SSE 1014,6 8 0,1
16.08.2017 16:00:00 16,5 12,3 28 15 36 19 S 1015,2 10 0,0
16.08.2017 15:00:00 15,6 13,1 26 14 40 21 S 1015,6 10 0,0
16.08.2017 14:00:00 15,4 13,2 24 13 36 19 SSE 1016,2 10 0,0
16.08.2017 13:00:00 15,6 13,3 22 12 32 18 S 1016,6 10 0,0
16.08.2017 12:00:00 15,1 13,3 18 10 25 14 S 1017,0 10 0,0
16.08.2017 11:00:00 14,9 12,6 15 8 22 12 S 1017,2 10 0,0
16.08.2017 10:00:00 13,7 11,9 15 8 22 12 S 1017,5 10 0,0
16.08.2017 09:00:00 12,4 11,8 15 8 22 12 S 1017,4 2,0 0,0
16.08.2017 08:00:00 13,0 12,1 15 8 22 12 S 1017,4 10 0,0
16.08.2017 07:00:00 13,4 12,1 13 7 18 10 S 1017,6 10 0,0
16.08.2017 06:00:00 12,4 11,6 8 4 11 6 S 1017,6 10 0,0
16.08.2017 05:00:00 12,0 11,1 2 1 11 6 - 1018,0 10 0,0
16.08.2017 04:00:00 12,4 11,6 5 3 14 8 SSW 1018,0 10 0,0
16.08.2017 03:00:00 12,5 11,4 8 4 14 8 S 1018,1 10 0,0
16.08.2017 02:00:00 13,0 11,2 4 2 14 8 - 1018,3 10 0,0
16.08.2017 01:00:00 13,6 11,5 11 6 18 10 SW 1018,6 10 0,0
16.08.2017 00:00:00 13,8 11,3 9 5 18 10 SSW 1018,6 10 0,0
15.08.2017 23:00:00 14,2 11,5 11 6 22 12 SSW 1018,4 10 0,0
15.08.2017 22:00:00 14,4 12,1 15 8 22 12 S 1018,4 10 0,0
15.08.2017 21:00:00 14,9 10,7 9 5 18 10 SSW 1018,9 10 0,0
15.08.2017 20:00:00 14,9 12,2 4 2 18 10 - 1019,3 10 0,0
15.08.2017 19:00:00 14,9 12,2 15 8 22 12 SE 1019,5 10 0,0
15.08.2017 18:00:00 15,0 11,0 16 9 22 12 SE 1019,8 10 0,0
15.08.2017 17:00:00 15,1 9,5 15 8 22 12 SSE 1020,3 10 0,0
15.08.2017 16:00:00 15,2 8,0 16 9 25 14 S 1020,9 10 0,0
15.08.2017 15:00:00 15,9 7,9 16 9 25 14 S 1021,0 10 0,0
15.08.2017 14:00:00 16,2 4,9 16 9 25 14 SW 1021,1 10 0,0
15.08.2017 13:00:00 15,8 4,2 13 7 29 16 WSW 1021,2 10 0,0
15.08.2017 12:00:00 15,7 5,9 15 8 22 12 SW 1021,0 10 0,0
15.08.2017 11:00:00 15,1 5,6 13 7 22 12 WSW 1021,1 10 0,0
15.08.2017 10:00:00 13,8 6,6 16 9 22 12 WSW 1020,9 10 0,0
15.08.2017 09:00:00 13,0 6,8 13 7 22 12 WSW 1021,1 10 0,0
15.08.2017 08:00:00 12,0 6,5 11 6 22 12 W 1020,8 10 0,0
15.08.2017 07:00:00 10,7 6,4 9 5 22 12 - 1020,5 10 0,0
15.08.2017 06:00:00 9,2 5,7 8 4 22 12 W 1020,0 10 0,0
15.08.2017 05:00:00 9,2 5,7 15 8 22 12 WSW 1019,8 10 0,0
15.08.2017 04:00:00 9,3 5,8 9 5 18 10 WSW 1019,4 10 0,0
15.08.2017 03:00:00 9,4 5,8 13 7 18 10 WSW 1018,9 10 0,0
15.08.2017 02:00:00 10,1 5,9 8 4 14 8 W 1018,6 10 0,0
15.08.2017 01:00:00 11,0 6,1 9 5 18 10 W 1018,3 10 0,0
15.08.2017 00:00:00 12,0 6,5 9 5 14 8 WSW 1017,8 10 0,0
14.08.2017 23:00:00 12,4 5,8 11 6 18 10 W 1017,2 10 0,0
14.08.2017 22:00:00 12,7 5,4 8 4 18 10 W 1016,5 10 0,0
14.08.2017 21:00:00 13,9 5,0 8 4 29 16 W 1015,8 10 0,0
14.08.2017 20:00:00 16,0 4,4 15 8 29 16 W 1015,1 10 0,0
14.08.2017 19:00:00 17,2 3,5 22 12 32 18 W 1014,2 10 0,0
14.08.2017 18:00:00 17,7 3,9 24 13 36 19 W 1013,7 10 0,0
14.08.2017 17:00:00 18,0 2,7 26 14 40 21 W 1013,1 10 0,0
14.08.2017 16:00:00 18,6 3,6 24 13 43 23 W 1012,4 10 0,0
14.08.2017 15:00:00 18,3 3,7 24 13 43 23 WNW 1011,8 10 0,0
14.08.2017 14:00:00 17,7 3,9 26 14 40 21 WNW 1011,1 10 0,0
14.08.2017 13:00:00 17,4 5,0 26 14 43 23 W 1010,2 10 0,0
14.08.2017 12:00:00 17,4 5,3 29 16 43 23 WNW 1009,5 10 0,0
14.08.2017 11:00:00 16,8 6,3 26 14 40 21 W 1008,6 10 0,0
14.08.2017 10:00:00 15,6 6,9 28 15 40 21 WNW 1007,5 10 0,0
14.08.2017 09:00:00 13,9 6,5 18 10 32 18 W 1006,7 10 0,0
14.08.2017 08:00:00 12,2 6,5 16 9 25 14 W 1005,9 10 0,0
14.08.2017 07:00:00 11,0 5,7 16 9 29 16 W 1005,5 10 0,0
14.08.2017 06:00:00 10,0 5,4 13 7 22 12 WSW 1005,3 10 0,0
14.08.2017 05:00:00 9,3 4,9 11 6 25 14 WSW 1005,0 10 0,0
14.08.2017 04:00:00 9,4 4,6 11 6 25 14 WSW 1004,5 10 0,0
14.08.2017 03:00:00 9,8 4,6 15 8 25 14 W 1004,5 10 0,0
14.08.2017 02:00:00 10,5 4,6 11 6 25 14 WSW 1004,1 10 0,0
14.08.2017 01:00:00 11,0 4,7 15 8 25 14 W 1003,9 10 0,0
14.08.2017 00:00:00 11,3 4,5 11 6 22 12 WSW 1003,5 10 0,0
13.08.2017 23:00:00 12,1 4,6 9 5 18 10 WSW 1003,0 10 0,0
13.08.2017 22:00:00 13,5 4,6 9 5 18 10 W 1002,5 10 0,0
13.08.2017 21:00:00 14,7 5,8 11 6 22 12 W 1002,0 10 0,0
13.08.2017 20:00:00 15,6 5,2 11 6 25 14 W 1001,3 10 0,0
13.08.2017 19:00:00 17,0 3,3 16 9 32 18 W 1000,8 10 0,0
13.08.2017 18:00:00 16,9 2,9 18 10 40 21 W 1000,3 10 0,0
13.08.2017 17:00:00 17,1 4,7 21 11 36 19 W 999,9 10 0,0
13.08.2017 16:00:00 18,0 4,9 18 10 36 19 W 999,2 10 0,0
13.08.2017 15:00:00 18,5 6,3 18 10 32 18 W 998,8 10 0,0
13.08.2017 14:00:00 17,7 8,3 21 11 40 21 WNW 998,4 10 0,0
13.08.2017 13:00:00 17,6 8,2 26 14 40 21 WNW 998,0 10 0,0
13.08.2017 12:00:00 15,8 10,6 18 10 29 16 NW 997,6 10 0,0
13.08.2017 11:00:00 14,5 9,9 22 12 32 18 WNW 997,1 10 0,0
13.08.2017 10:00:00 13,9 10,5 22 12 32 18 NW 996,9 10 0,0
13.08.2017 09:00:00 13,6 10,6 26 14 36 19 NW 996,4 10 0,0
13.08.2017 08:00:00 13,1 11,2 18 10 25 14 NW 996,1 10 0,0
13.08.2017 07:00:00 13,1 11,7 16 9 25 14 WNW 996,3 10 0,0
13.08.2017 06:00:00 13,4 12,1 16 9 25 14 WNW 996,0 10 0,0
13.08.2017 05:00:00 13,3 12,4 16 9 29 16 NW 995,9 10 0,0
13.08.2017 04:00:00 14,5 13,7 18 10 29 16 NW 996,4 10 0,1
13.08.2017 03:00:00 15,3 14,3 11 6 22 12 NW 996,7 10 0,0
13.08.2017 02:00:00 14,7 13,9 5 3 11 6 W 997,2 10 0,0
13.08.2017 01:00:00 14,7 13,7 5 3 14 8 SSW 997,8 10 0,0
13.08.2017 00:00:00 14,9 13,8 9 5 22 12 SSW 998,4 10 0,0
12.08.2017 23:00:00 14,8 13,7 15 8 22 12 S 998,3 10 0,0
12.08.2017 22:00:00 15,5 14,0 11 6 18 10 S 998,1 10 0,0
12.08.2017 21:00:00 15,5 13,9 13 7 29 16 S 999,0 10 0,0
12.08.2017 20:00:00 15,7 14,1 16 9 25 14 SSE 999,2 10 0,0
12.08.2017 19:00:00 16,2 14,0 11 6 25 14 S 999,6 10 0,0
12.08.2017 18:00:00 16,1 13,9 13 7 32 18 S 1000,0 10 0,0
12.08.2017 17:00:00 17,0 14,1 22 12 36 19 SSW 1000,2 10 0,0
12.08.2017 16:00:00 16,6 13,7 24 13 40 21 SSW 1000,4 10 0,0
12.08.2017 15:00:00 17,1 14,2 24 13 40 21 S 1000,5 10 0,0
12.08.2017 14:00:00 18,3 14,6 24 13 40 21 S 1000,5 10 0,0
12.08.2017 13:00:00 17,8 14,3 24 13 40 21 S 1000,4 10 0,0
12.08.2017 12:00:00 17,2 14,5 29 16 43 23 S 1000,1 10 0,0
12.08.2017 11:00:00 17,2 14,5 26 14 43 23 S 1000,0 10 0,0
12.08.2017 10:00:00 17,1 14,6 24 13 36 19 S 999,9 10 0,0
12.08.2017 09:00:00 17,0 13,9 21 11 32 18 S 999,7 10 0,0
12.08.2017 08:00:00 16,2 14,0 16 9 29 16 SSW 999,9 10 0,0
12.08.2017 07:00:00 15,7 14,2 15 8 25 14 SSW 1000,6 10 0,0
12.08.2017 06:00:00 15,1 14,0 16 9 25 14 SSW 1000,9 10 0,0
12.08.2017 05:00:00 15,0 14,2 8 4 25 14 SSW 1000,9 10 0,0
12.08.2017 04:00:00 15,0 14,2 15 8 25 14 S 1001,3 10 0,0
12.08.2017 03:00:00 14,6 13,8 8 4 25 14 S 1001,6 10 0,0
12.08.2017 02:00:00 14,8 14,2 16 9 25 14 S 1002,3 10 0,0
12.08.2017 01:00:00 14,9 14,1 13 7 22 12 S 1002,8 10 0,0
12.08.2017 00:00:00 15,1 14,0 13 7 18 10 S 1003,5 10 0,0
11.08.2017 23:00:00 15,1 14,0 15 8 18 10 S 1004,0 10 0,0
11.08.2017 22:00:00 15,3 14,2 9 5 14 8 SSE 1004,4 10 0,0
11.08.2017 21:00:00 15,9 14,4 11 6 22 12 SSE 1004,7 10 0,0
11.08.2017 20:00:00 16,3 14,5 15 8 22 12 SSE 1005,4 10 0,0
11.08.2017 19:00:00 16,7 14,3 13 7 22 12 S 1005,8 10 0,0
11.08.2017 18:00:00 17,7 13,8 15 8 25 14 S 1005,9 10 0,0
11.08.2017 17:00:00 18,7 13,3 16 9 25 14 S 1005,9 10 0,0
11.08.2017 16:00:00 18,4 13,9 18 10 32 18 S 1006,3 10 0,0
11.08.2017 15:00:00 17,9 13,0 22 12 32 18 S 1006,6 10 0,0
11.08.2017 14:00:00 17,9 13,0 18 10 32 18 S 1006,7 10 0,0
11.08.2017 13:00:00 17,3 13,0 15 8 36 19 S 1006,9 10 0,0
11.08.2017 12:00:00 17,7 12,2 21 11 29 16 S 1007,1 10 0,0
11.08.2017 11:00:00 16,8 10,4 16 9 25 14 SW 1007,5 10 0,0
11.08.2017 10:00:00 15,8 9,9 15 8 25 14 SW 1007,6 10 0,0
11.08.2017 09:00:00 15,1 9,5 13 7 22 12 SW 1007,2 10 0,0

tt = temperature
td = dewpoint
ff = wind speed
fx = gusts
dd = wind direction
ppp = reduced air pressure
vv = visibility
rr = precipitation

Next stations